Total_Precipitation_Accumulation
2.56 2.84 2.67 2.41 2.49 2.55 2.74 3.07 3.12 2.64 2.24 2.09 2.05 2.08 2.40 2.75 3.14 2.75 2.49 2.61 2.37 2.20 2.12 2.12 2.09 2.08 2.16 2.22 2.30 2.41 2.57 2.76 2.93 3.18 3.62 4.17 4.66 5.06
2.65 2.85 2.80 2.62 2.70 2.65 2.74 2.98 3.22 3.09 2.53 2.07 2.13 2.13 2.29 2.22 2.71 2.52 2.52 2.66 2.34 2.16 2.08 2.09 2.12 2.06 2.03 2.08 2.11 2.09 2.05 2.11 2.16 2.27 2.44 2.66 3.01 3.45
2.56 2.70 2.78 3.04 3.03 2.93 3.06 3.09 3.15 3.22 2.82 2.26 2.28 2.41 2.47 2.36 2.37 2.31 2.28 2.29 2.15 2.22 2.05 2.01 2.04 2.01 1.83 1.72 1.76 1.80 1.80 1.82 1.83 1.90 1.99 1.99 2.03 2.26
2.65 2.94 2.86 3.02 3.10 3.14 3.27 3.05 3.10 3.44 3.27 2.79 2.69 2.84 2.78 2.58 2.52 2.42 2.11 1.98 1.97 2.22 2.04 1.93 1.88 1.89 1.90 1.70 1.57 1.59 1.62 1.66 1.67 1.70 1.76 1.72 1.70 1.79
2.79 2.93 3.03 3.38 3.17 3.21 3.19 3.03 3.05 3.29 3.49 3.16 2.88 3.06 2.95 2.72 2.77 2.45 2.21 2.25 1.96 2.06 2.10 1.92 1.81 1.80 1.84 1.85 1.71 1.57 1.51 1.49 1.46 1.52 1.63 1.69 1.69 1.70
2.88 2.96 3.04 3.22 3.30 3.47 3.42 3.43 3.56 3.73 3.85 3.59 3.29 3.32 3.29 3.23 3.13 2.71 2.57 2.44 2.24 1.99 2.13 2.02 1.91 1.83 1.81 1.77 1.72 1.68 1.58 1.48 1.45 1.45 1.48 1.55 1.61 1.67
2.99 2.97 2.98 3.20 3.34 3.48 3.25 3.44 3.81 3.97 4.03 3.98 3.82 3.90 3.77 3.71 3.31 2.94 2.84 2.72 2.50 2.15 2.11 1.97 1.92 1.78 1.76 1.82 1.82 1.82 1.75 1.59 1.53 1.54 1.51 1.48 1.51 1.58
3.04 3.08 3.05 3.07 2.99 2.97 2.97 3.13 3.41 3.58 3.75 3.93 3.95 3.96 3.89 3.81 3.66 3.40 3.06 2.86 2.53 2.25 2.38 2.21 2.08 1.95 1.76 1.68 1.88 1.87 1.82 1.72 1.62 1.57 1.56 1.55 1.55 1.62
3.00 3.05 2.80 2.65 2.86 2.63 2.76 2.88 2.82 2.84 2.98 3.27 3.39 3.34 3.62 3.83 3.89 3.44 3.08 2.79 2.50 2.37 2.54 2.31 2.10 1.97 1.83 1.84 2.01 1.84 1.76 1.74 1.70 1.63 1.57 1.53 1.53 1.58
2.71 2.79 2.77 2.66 2.67 2.77 2.77 2.64 2.36 2.26 2.40 2.40 2.40 2.62 3.01 3.49 3.70 3.56 3.59 3.28 2.85 2.56 2.57 2.40 2.11 1.97 1.82 1.78 2.00 1.88 1.74 1.73 1.74 1.72 1.63 1.54 1.51 1.51
2.68 2.72 2.69 2.51 2.68 2.66 2.58 2.49 2.32 2.13 2.17 2.25 2.23 2.43 2.72 3.02 3.35 3.47 3.42 3.39 2.94 2.54 2.47 2.40 2.15 2.13 2.03 1.81 1.77 1.88 1.75 1.71 1.75 1.77 1.76 1.69 1.63 1.60
2.75 2.80 2.80 2.56 2.64 2.58 2.44 2.43 2.27 2.17 2.25 2.25 2.24 2.22 2.21 2.54 2.95 2.95 3.00 3.15 2.93 2.65 2.40 2.47 2.27 2.38 2.28 1.86 1.64 1.60 1.60 1.70 1.73 1.65 1.63 1.68 1.75 1.55
2.67 2.64 2.69 2.72 2.45 2.29 2.18 2.12 2.18 2.33 2.44 2.31 2.19 2.13 2.16 2.25 2.42 2.49 2.61 2.77 2.76 2.50 2.30 2.54 2.44 2.47 2.36 1.97 1.76 1.68 1.61 1.54 1.52 1.52 1.54 1.60 1.67 1.54
2.52 2.55 2.60 2.63 2.32 2.07 1.82 1.75 1.87 1.94 2.05 2.13 2.06 2.02 2.02 2.02 2.19 2.49 2.68 2.75 2.73 2.60 2.58 2.63 2.54 2.50 2.46 2.19 1.88 1.69 1.62 1.52 1.46 1.39 1.36 1.63 1.68 1.69
2.21 2.48 2.53 2.39 2.17 1.99 1.87 1.80 1.73 1.65 1.77 1.90 1.79 1.80 1.92 2.05 2.31 2.66 2.91 3.08 2.97 2.67 2.52 2.57 2.56 2.53 2.49 2.19 1.85 1.67 1.66 1.59 1.53 1.57 1.55 1.53 1.53 1.58
2.12 2.36 2.45 2.43 2.27 2.12 1.99 1.84 1.63 1.60 1.63 1.71 1.82 1.83 1.98 2.11 2.25 2.43 2.78 2.97 3.06 2.82 2.53 2.48 2.54 2.61 2.48 2.23 2.03 1.80 1.69 1.63 1.55 1.59 1.68 1.70 1.68 1.67
2.22 2.31 2.45 2.48 2.44 2.36 2.18 2.04 1.91 1.76 1.64 1.64 1.80 1.85 1.89 1.94 1.95 2.04 2.34 2.57 2.60 2.48 2.42 2.43 2.53 2.64 2.66 2.57 2.29 1.87 1.73 1.63 1.59 1.76 1.88 1.80 1.67 1.62
2.10 2.16 2.43 2.50 2.51 2.48 2.37 2.20 2.03 1.90 1.81 1.80 1.88 1.91 1.90 1.96 2.02 2.06 2.20 2.40 2.44 2.36 2.30 2.28 2.54 2.81 2.81 2.65 2.34 2.09 1.86 1.74 1.78 2.00 2.06 1.95 1.75 1.62
1.70 1.82 2.13 2.34 2.43 2.45 2.38 2.17 2.00 2.03 2.13 2.06 2.00 1.98 1.99 2.03 2.14 2.18 2.26 2.41 2.47 2.46 2.37 2.40 2.58 2.77 2.68 2.37 2.08 1.89 1.92 1.89 1.96 1.99 2.00 1.93 1.82 1.71
1.57 1.71 1.97 2.23 2.34 2.39 2.41 2.36 2.24 2.25 2.31 2.23 2.13 2.07 2.06 2.10 2.10 2.15 2.21 2.30 2.38 2.48 2.40 2.35 2.40 2.43 2.41 2.31 2.16 1.89 1.85 2.02 2.11 2.04 1.95 2.00 1.95 1.97
1.77 1.77 1.87 2.07 2.24 2.35 2.37 2.40 2.39 2.44 2.48 2.49 2.37 2.29 2.25 2.27 2.19 2.09 2.12 2.27 2.29 2.30 2.21 2.01 2.04 2.32 2.55 2.72 2.47 1.97 1.82 1.91 2.01 2.06 2.02 2.09 2.04 2.00
1.89 1.89 1.93 2.05 2.23 2.38 2.43 2.44 2.51 2.49 2.51 2.48 2.40 2.34 2.28 2.28 2.28 2.23 2.23 2.30 2.26 2.20 2.20 2.16 2.24 2.48 2.59 2.53 2.23 1.99 1.90 1.91 2.00 2.03 1.96 1.91 1.89 1.81
2.15 2.14 2.20 2.31 2.37 2.42 2.39 2.32 2.30 2.34 2.33 2.29 2.27 2.25 2.22 2.19 2.22 2.30 2.32 2.36 2.35 2.34 2.41 2.48 2.49 2.47 2.39 2.33 2.23 2.11 2.03 2.00 2.00 1.92 1.72 1.66 1.54 1.44